カタログに戻る

ONEWEB-0619

運用中通信PO
NORAD 55160·PAYLOAD·🇬🇧 United Kingdom

打ち上げ Jan 10, 2023 から Cape Canaveral Space Force Station

Loading…

次のパス (今後24時間)

TLE

最新Source: CelesTrak SupGP

元期: Sep 14, 2026, 10:10 UTC

1 55160C 23004W   26257.42377732 -.00002357  00000+0 -60791-2 0  2573
2 55160  87.9215 348.1353 0002280 105.3453   7.0749 13.17652792    12

AllMySatでONEWEB-0619をリアルタイム追跡

Download on the App Store